sat.trackr.live / text

‹ back to catalog

STARLINK-2707

NORAD 48669 · 2021-044AH

PAYLOAD ACTIVE UNKNOWN

§ Identity

Operator
Country
US
Launch date
2021-05-26
Launch site
AFETR
Launch vehicle
Mass (kg)
RCS (m²)

Purposes: comms

External: N2YO · Heavens-Above · Gunter

§ Orbital elements

Epoch: 2026-09-19T18:01:07.484448Z

Period
94.01 min
Inclination
53.1572°
Eccentricity
0.0001661
Mean motion
15.31699566 rev/d
Perigee alt
469.6 km
Apogee alt
471.9 km
Semi-major
6,848.9 km
B*
3.7676e-6
RAAN
280.9553°
Arg perigee
72.0229°
Mean anomaly
288.0954°
Rev number
29,369

§ Raw data

STARLINK-27071 48669U 21044AH  26262.75078107 -.00000249  00000+0  37676-5 0  99962 48669  53.1572 280.9553 0001661  72.0229 288.0954 15.31699566293692

JSON: /api/v1/satellites/48669 · /tle

For live sub-satellite position, see the globe view (requires WebGL).

§ Visibility from observer

Set your observer location to see the next 7 days of passes ≥ 10°. The values pass through the URL so the page stays shareable.

No JS? Fill the form by hand. The geolocation button needs JavaScript.